Home > Time Zones > World Clock > Weather > Greece > Ilio > Past weeks

Flag for Greece Weather past 2 weeks in Ilio, Greece

Now
81 °F

Partly sunny.


Feels Like: 81 °F
Forecast: 67 / 84 °F
Wind: 5 mph from South

Location: Elefsis Airport

Current Time: Sep 3, 2014 at 10:04:41 AM

Latest Report: Sep 3, 2014 at 9:20 AM


Visibility: N/A

Pressure: 29.68 "Hg

Humidity: 51%

Dew point: 61 °F

Location of IlioLocation

Historic Weather in Ilio — Graph

°F

Ilio temperature yesterday

Maximum temperature yesterday: 86 °F (at 2:50 PM)
Minimum temperature yesterday: 70 °F (at 4:50 AM)
Average temperature yesterday: 78 °F

Past Weeks' High & Low Weather Summary

 TemperatureHumidityPressure
High104 °F (Aug 24, 2:50 PM)78% (Sep 2, 7:20 AM)30.01 "Hg (Sep 2, 7:20 AM)
Low68 °F (Aug 21, 6:20 AM)8% (Aug 24, 3:20 PM)29.62 "Hg (Sep 2, 4:20 PM)
Average83 °F43%29.87 "Hg
* Reported Aug 19 8:20 AM — Sep 3 8:50 AM, Ilio, Weather by CustomWeather, © 2014

Note: Actual official high and low records may vary slightly from our data, if they occured in-between our weather recording intervals... More about our weather records

Advertising

Ilio weather history for previous 24 hours

 ConditionsComfort  
Time TempWeatherWind HumidityBarometerVisibility
8:50 AM
Sep 3
79 °FPartly sunny.No wind51%29.68 "HgN/A
8:20 AM77 °FPartly sunny.No wind57%29.68 "HgN/A
7:50 AM77 °FPartly cloudy.No wind51%29.68 "HgN/A
7:20 AM77 °FPartly cloudy.No wind51%29.65 "HgN/A
6:50 AM77 °FPartly cloudy.No wind54%29.65 "HgN/A
6:20 AM77 °FPassing clouds.No wind57%29.65 "HgN/A
5:50 AM75 °FPassing clouds.No wind57%29.65 "HgN/A
5:20 AM75 °FPassing clouds.No wind57%29.65 "HgN/A
4:50 AM77 °FPassing clouds.No wind54%29.65 "HgN/A
4:20 AM75 °FPassing clouds.No wind54%29.65 "HgN/A
3:50 AM75 °FPassing clouds.No wind54%29.65 "HgN/A
3:20 AM77 °FPassing clouds.6 mph51%29.65 "HgN/A
2:50 AM77 °FPassing clouds.5 mph51%29.65 "HgN/A
2:20 AM77 °FPassing clouds.No wind54%29.65 "HgN/A
1:20 AM75 °FPassing clouds.No wind61%29.65 "HgN/A
12:50 AM75 °FPassing clouds.No wind61%N/AN/A
11:50 PM
Sep 2
73 °FPassing clouds.5 mph65%29.68 "HgN/A
11:20 PM77 °FPassing clouds.5 mph51%29.68 "HgN/A
10:50 PM77 °FPassing clouds.No wind57%29.68 "HgN/A
9:50 PM79 °FPassing clouds.3 mph65%29.65 "HgN/A
9:20 PM81 °FPassing clouds.5 mph54%29.62 "HgN/A
8:50 PM81 °FScattered clouds.9 mph54%29.62 "HgN/A
8:20 PM81 °FScattered clouds.8 mph70%29.62 "HgN/A
7:50 PM81 °FScattered clouds.12 mph66%29.62 "HgN/A
7:20 PM81 °FScattered clouds.16 mph70%29.62 "HgN/A
6:50 PM81 °FScattered clouds.15 mph66%29.62 "HgN/A
6:20 PM82 °FScattered clouds.14 mph66%29.62 "HgN/A
5:50 PM82 °FScattered clouds.18 mph62%29.62 "HgN/A
5:20 PM82 °FScattered clouds.17 mph58%29.62 "HgN/A
4:50 PM84 °FScattered clouds.20 mph55%29.62 "HgN/A
4:20 PM84 °FScattered clouds.17 mph51%29.62 "HgN/A
3:50 PM84 °FScattered clouds.15 mph48%29.65 "HgN/A
3:20 PM84 °FScattered clouds.15 mph45%29.65 "HgN/A
2:50 PM86 °FScattered clouds.12 mph46%29.65 "HgN/A
2:20 PM84 °FScattered clouds.10 mph55%29.65 "HgN/A
1:50 PM84 °FBroken clouds.10 mph58%29.68 "HgN/A
1:20 PM82 °FBroken clouds.10 mph62%29.68 "HgN/A
12:50 PM82 °FBroken clouds.12 mph66%29.68 "HgN/A
12:20 PM82 °FBroken clouds.9 mph58%29.68 "HgN/A
11:50 AM82 °FScattered clouds.8 mph58%29.68 "HgN/A
11:20 AM84 °FScattered clouds.8 mph58%29.68 "HgN/A
10:50 AM82 °FScattered clouds.6 mph58%29.68 "HgN/A
10:20 AM82 °FScattered clouds.5 mph58%29.68 "HgN/A
Weather by CustomWeather, © 2014

See weather overviewHow to use our weather pages